SCP
0 0 0 0 0 0 0 -0 -0 0 0 0 0 -0 0 0 0 0 0 0 0 0 0 0 0 0 0 0 0 0 0 0 0 0 0 0 0 0 0 0 0 0 0 0
0 0 0 0 0 0 0 -0 0 0 0 -0 0 -0 0 0 0 0 0 0 0 0 0 0 0 0 0 0 0 0 0 0 0 0 0 0 0 0 0 0 0 0 0 0
0 0 0 0 0 -0 0 0 0 0 0 0 0 0 0 0 0 0 0 0 0 0 0 0 0 0 0 0 0 0 0 0 0 0 0 0 0 0 0 0 0 0 0 0
0 0 0 0 0 -0 0 0 0 0 0 0 0 0 0 0 0 0 0 0 0 0 0 0 0 0 0 0 0 0 0 0 0 0 0 0 0 0 0 0 0 0 0 0
0 0 0 0 0 0 0 0 0 0 0 0 0 0 0 0 0 0 0 0 0 0 0 0 0 0 0 0 0 0 0 0 0 0 0 0 0 0 0 0 0 0 0 0
0 0 0 0 0 0 0 0 0 0 0 0 0 0 0 0 0 0 0 0 0 0 0 0 0 0 0 0 0 0 0 0 0 0 0 0 0 0 0 0 0 0 0 0
0 0 0 0 0 0 0 0 -0 0 0 0 0 0 0 0 0 0 0 0 0 0 0 0 0 0 0 0 0 0 0 0 0 0 0 0 0 0 0 0 0 0 0 0
-0 0 0 0 0 0 0 0 -0 0 0 0 0 0 0 0 0 0 0 0 0 0 0 0 0 0 0 0 0 0 0 0 0 0 0 0 0 0 0 0 0 0 0 0
0 0 0 0 0 0 0 0 0 0 0 0 0 0 0 0 0 0 0 0 0 0 0 0 0 0 0 0 0 0 0 0 0 0 0 0 0 0 0 0 0 0 0 0
0 0 0 0 0 0 0 0 0 0 0 0 0 0 0 0 0 0 0 0 0 0 0 0 0 0 0 0 0 0 0 0 0 0 0 0 0 0 0 0 0 0 0 0
0 0 0 0 0 0 0 0 0 0 0 0 0 0 0 0 0 0 0 0 0 0 0 0 0 0 0 0 0 0 0 0 0 0 0 0 0 0 0 0 0 0 0 0
0 0 0 0 0 0 0 0 0 0 0 0 0 0 0 0 0 0 0 0 0 0 0 0 0 0 0 0 0 0 0 0 0 0 0 0 0 0 0 0 0 0 0 0
0 0 0 0 0 0 0 0 0 0 0 0 0 0 0 0 0 0 0 0 0 0 0 0 0 0 0 0 0 0 0 0 0 0 0 0 0 0 0 0 0 0 0 0
0 0 0 0 0 0 0 0 0 0 0 0 0 0 0 0 0 0 0 0 0 0 0 0 0 0 0 0 0 0 0 0 0 0 0 0 0 0 0 0 0 0 0 0
0 0 0 0 0 0 0 0 0 0 0 0 0 0 0 0 0 0 0 0 0 0 0 0 0 0 0 0 0 0 0 0 0 0 0 0 0 0 0 0 0 0 0 0
0 0 0 0 0 0 0 0 0 0 0 0 0 0 0 0 0 0 0 0 0 0 0 0 0 0 0 0 0 0 0 0 0 0 0 0 0 0 0 0 0 0 0 0
0 0 0 0 0 0 0 0 0 0 0 0 0 0 0 0 0 0 0 0 0 0 0 0 0 0 0 0 0 0 0 0 0 0 0 0 0 0 0 0 0 0 0 0
0 0 0 0 0 0 0 0 0 0 0 0 0 0 0 0 0 0 0 0 0 0 0 0 0 0 0 0 0 0 0 0 0 0 0 0 0 0 0 0 0 0 0 0
0 0 0 0 0 0 0 0 0 0 0 0 0 0 0 0 0 0 0 0 0 0 0 0 0 0 0 0 0 0 0 0 0 0 0 0 0 0 0 0 0 0 0 0
0 0 0 0 0 0 0 0 0 0 0 0 0 0 0 0 0 0 0 0 0 0 0 0 0 0 0 0 0 0 0 0 0 0 0 0 0 0 0 0 0 0 0 0
0 0 0 0 0 0 0 0 0 0 0 0 0 0 0 0 0 0 0 0 0 0 0 0 0 0 0 0 0 0 0 0 0 0 0 0 0 0 0 0 0 0 0 0
0 0 0 0 0 0 0 0 0 0 0 0 0 0 0 0 0 0 0 0 0 0 0 0 0 0 0 0 0 0 0 0 0 0 0 0 0 0 0 0 0 0 0 0
0 0 0 0 0 0 0 0 0 0 0 0 0 0 0 0 0 0 0 0 0 0 0 0 0 0 0 0 0 0 0 0 0 0 0 0 0 0 0 0 0 0 0 0
0 0 0 0 0 0 0 0 0 0 0 0 0 0 0 0 0 0 0 0 0 0 0 0 0 0 0 0 0 0 0 0 0 0 0 0 0 0 0 0 0 0 0 0
0 0 0 0 0 0 0 0 0 0 0 0 0 0 0 0 0 0 0 0 0 0 0 0 0 0 0 0 0 0 0 0 0 0 0 0 0 0 0 0 0 0 0 0
0 0 0 0 0 0 0 0 0 0 0 0 0 0 0 0 0 0 0 0 0 0 0 0 0 0 0 0 0 0 0 0 0 0 0 0 0 0 0 0 0 0 0 0
Wind_Speed_500mb
17 20 18 16 13 8 10 13 20 15 8 17 22 43 43 43 46 36 41 40 40 39 31 30 31 30 33 33 32 33 34 35 36 38 41 45 44 51 43 49 49 59 65 69
12 15 11 8 9 9 10 15 14 17 2 19 28 51 37 7 22 33 38 38 37 36 36 32 31 35 35 33 35 35 34 35 37 42 46 49 50 54 56 54 55 65 68 74
15 5 7 5 10 15 3 6 12 15 26 6 27 19 9 7 6 10 21 29 34 39 37 36 33 31 30 33 33 34 36 38 40 43 47 47 51 47 43 45 65 70 79 81
13 2 4 6 6 12 8 7 14 19 15 8 10 10 16 5 6 10 20 27 30 32 31 31 31 33 33 35 37 36 38 38 37 41 44 46 46 44 46 52 61 65 66 64
4 8 10 6 4 3 7 13 13 10 7 12 3 6 11 3 5 6 8 18 25 26 28 31 33 31 31 31 31 36 37 35 37 42 47 47 44 47 51 56 59 61 61 54
6 1 4 7 9 7 18 10 8 5 4 6 6 9 17 5 2 1 2 4 9 13 23 28 27 27 28 28 36 32 35 37 35 40 48 47 49 53 57 59 60 65 60 63
2 3 3 5 9 7 12 7 7 5 4 7 4 11 23 15 8 6 9 8 7 8 19 22 22 26 26 23 25 26 30 38 41 45 47 51 55 55 57 58 60 61 65 63
7 5 2 7 6 6 8 3 4 10 10 17 7 13 8 4 2 6 10 8 9 11 9 17 20 19 20 21 24 26 32 39 42 47 52 53 54 57 58 58 58 62 63 64
8 6 6 6 5 4 5 3 6 5 4 4 7 12 23 8 6 4 1 5 6 10 15 17 17 15 16 19 23 32 35 40 45 50 52 52 53 54 55 57 58 63 63 67
9 12 6 4 3 7 3 6 2 2 12 15 8 9 16 4 6 5 6 4 3 17 22 22 11 13 18 19 25 30 34 42 49 50 50 50 53 53 56 59 61 63 67 68
4 4 4 2 8 7 5 4 2 4 4 7 13 10 8 9 5 5 6 5 15 29 31 23 14 15 17 21 26 34 42 48 49 50 54 53 54 56 58 61 63 65 69 69
4 3 10 12 5 2 3 6 7 6 5 8 7 20 5 5 8 3 11 14 28 35 20 11 10 13 19 25 37 42 48 50 53 54 58 58 57 58 59 62 63 66 70 73
4 3 10 7 3 5 8 10 7 1 4 17 10 16 2 7 4 9 15 25 24 14 12 13 14 21 27 39 46 48 51 53 56 62 63 65 63 62 62 62 66 68 72 79
1 6 10 15 15 3 16 12 16 12 8 13 30 51 43 29 8 27 21 13 13 14 13 15 20 29 36 43 48 51 53 58 66 69 74 74 71 68 66 66 67 74 69 71
3 9 8 26 30 22 37 34 21 28 36 19 49 32 54 39 33 25 12 18 12 10 13 21 27 33 41 46 48 51 56 65 70 73 74 73 74 73 75 76 75 68 64 62
5 5 6 16 18 17 23 31 25 34 41 40 55 64 45 34 3 12 12 11 7 8 16 23 30 38 43 45 48 54 62 67 69 73 73 74 77 81 81 77 73 67 61 58
4 4 2 10 7 22 19 20 22 13 15 14 18 22 4 4 7 9 6 8 6 12 20 29 35 39 41 45 50 59 65 68 71 71 71 73 77 79 75 72 69 69 66 60
11 6 3 11 10 7 11 3 7 19 25 29 33 32 18 11 21 16 13 8 9 15 23 31 37 39 42 47 55 62 66 69 71 71 73 74 75 73 70 68 68 69 68 65
9 4 5 7 7 25 21 8 3 4 15 26 28 20 12 10 10 12 11 8 9 16 24 29 31 36 39 44 54 62 65 67 68 70 73 74 71 69 67 67 68 69 67 63
6 3 5 3 9 14 12 11 11 9 13 7 2 5 7 4 21 9 11 5 8 16 23 24 29 35 41 50 57 60 61 64 65 68 72 72 67 63 62 63 67 65 63 59
9 6 12 15 14 21 23 22 10 2 9 10 7 14 17 14 16 6 7 6 12 17 19 25 32 39 47 52 58 60 58 58 63 65 70 69 62 58 56 59 62 64 64 64
17 17 12 8 11 21 26 20 12 4 7 32 28 27 33 24 14 11 9 9 12 14 19 26 36 45 50 54 59 59 59 63 66 69 69 65 57 54 55 57 56 59 60 63
8 15 11 24 18 6 30 48 47 41 44 42 35 24 26 22 19 14 12 9 10 13 20 30 41 48 50 54 57 61 63 67 69 71 68 64 56 54 56 56 56 58 61 61
11 20 9 3 30 54 66 72 67 59 55 45 30 23 27 23 20 18 11 8 8 15 25 34 42 47 50 53 55 58 63 67 69 70 67 62 59 59 57 56 54 60 63 61
13 28 13 24 58 71 74 50 47 47 44 37 29 24 26 23 21 14 9 6 8 16 27 36 43 47 49 51 54 58 62 65 67 68 66 62 59 59 60 59 60 62 58 52
31 24 16 28 73 21 35 23 28 29 29 32 31 32 30 24 17 12 11 5 8 19 28 34 40 45 49 51 53 56 58 61 66 68 66 61 61 59 61 66 74 64 56 53
Wind_Direction_500mb
31 66 52 24 20 350 336 326 315 303 37 322 283 289 288 280 261 243 250 243 238 241 242 239 250 263 271 278 283 284 286 293 302 308 314 315 316 319 317 317 316 316 317 317
70 58 18 339 347 344 332 311 326 296 142 329 307 295 291 320 270 252 244 245 242 241 235 237 245 256 266 270 278 278 284 292 301 306 312 315 317 318 315 315 310 314 315 317
70 50 327 321 17 352 0 328 340 305 319 261 301 280 197 180 253 263 244 241 239 238 237 239 242 250 263 269 272 276 283 291 299 304 314 317 316 315 313 309 312 315 317 318
68 25 314 329 66 351 308 29 325 303 326 300 2 289 294 159 280 222 237 237 243 243 242 243 244 249 254 262 265 277 284 296 306 310 315 316 316 312 309 311 308 309 310 308
39 3 3 13 322 317 322 331 309 314 270 315 150 280 287 191 174 196 226 240 245 245 244 244 246 252 256 258 273 281 293 302 306 311 314 316 312 310 309 310 308 306 308 301
93 206 345 325 296 251 313 304 270 258 243 273 73 359 284 252 75 147 168 311 309 265 251 249 249 251 258 268 277 285 293 300 310 311 314 315 314 314 313 313 309 308 304 304
248 171 91 353 298 198 304 312 331 327 291 279 126 275 258 292 296 290 326 344 339 306 251 253 258 258 272 274 282 295 303 308 312 317 317 317 316 315 312 312 310 309 307 304
358 295 40 357 20 327 342 334 352 309 307 310 155 234 258 80 350 279 267 289 327 319 282 268 272 277 281 285 294 299 304 312 318 319 318 318 316 314 311 311 310 306 307 304
335 259 121 40 354 343 6 348 12 288 88 282 243 267 268 47 315 280 302 332 345 355 338 321 313 302 297 306 311 311 318 321 321 322 321 319 318 317 315 312 310 307 306 306
25 300 55 51 328 59 310 9 309 118 318 307 237 268 257 289 263 18 22 333 308 333 337 339 321 299 309 319 322 325 328 323 324 322 322 321 321 318 316 314 311 309 308 308
122 136 313 185 196 172 169 206 190 290 251 272 304 274 179 203 153 142 279 241 318 328 327 324 321 325 337 337 329 328 326 327 327 325 325 325 323 321 317 315 313 311 311 311
75 316 269 245 130 343 260 255 221 245 202 251 294 273 41 130 131 127 311 294 319 317 322 335 344 344 340 329 327 331 330 331 330 331 329 328 324 322 319 317 315 315 311 308
138 248 303 269 198 168 222 200 194 126 259 231 261 262 246 107 148 300 309 323 326 351 349 356 348 339 332 329 332 333 337 335 335 333 331 329 327 326 324 321 319 317 309 308
298 273 232 256 273 27 263 205 207 207 256 269 236 273 278 289 357 341 338 350 349 350 359 346 341 334 334 333 337 342 342 339 337 335 333 333 331 329 326 324 320 318 319 315
213 261 285 264 273 278 268 266 222 212 235 248 275 279 282 300 317 326 335 326 332 344 343 334 335 336 335 338 342 342 341 337 336 334 335 336 335 332 332 328 328 325 323 322
165 269 343 296 308 293 280 275 244 237 256 258 264 276 279 290 256 305 313 319 316 314 319 329 337 338 339 340 342 340 337 335 334 337 337 339 337 337 336 336 336 333 331 327
192 241 281 265 337 326 282 250 198 204 210 205 234 261 119 269 321 326 308 277 259 303 330 337 338 336 337 338 338 335 335 336 337 337 338 340 340 338 339 340 341 343 340 333
155 174 206 282 305 264 235 229 222 223 259 222 263 274 313 313 297 295 289 254 291 328 335 337 334 335 335 334 333 335 338 337 336 338 339 340 340 339 341 341 343 343 340 338
221 189 232 276 264 282 277 139 136 268 273 267 242 264 278 301 311 247 254 256 327 337 337 336 333 332 332 331 331 334 336 334 336 336 338 339 340 339 341 342 344 342 338 340
136 339 246 162 260 285 352 151 136 148 278 89 113 345 307 304 303 335 196 255 312 324 327 333 330 331 332 332 333 335 335 334 335 335 337 338 339 336 338 341 340 339 341 338
158 174 220 219 254 275 277 154 129 200 315 144 309 295 271 267 272 204 225 264 301 321 334 332 336 336 335 333 334 336 334 333 333 334 337 339 337 335 338 339 338 341 339 337
178 166 202 186 230 276 154 129 213 301 295 303 310 285 269 247 234 230 232 268 314 331 332 335 338 338 338 335 336 337 336 335 336 338 339 338 337 338 336 335 339 340 339 336
263 200 195 188 221 231 209 254 269 276 285 290 293 277 266 220 216 218 242 287 311 324 336 336 338 339 341 339 339 338 339 338 339 339 340 340 340 338 336 333 335 338 340 335
239 205 241 25 238 257 274 283 274 277 276 278 273 261 234 209 205 214 235 271 307 336 336 339 340 341 342 342 342 339 340 339 339 341 341 341 338 337 336 336 335 331 335 333
189 155 208 255 278 275 275 282 269 269 263 254 236 237 207 201 197 211 227 243 314 336 342 342 341 342 344 345 343 342 342 339 341 342 342 339 336 336 336 335 335 333 334 329
195 213 219 250 269 264 276 283 279 251 242 230 224 198 192 189 192 201 209 236 335 344 343 345 344 345 347 346 345 344 343 343 343 342 340 338 338 337 336 335 337 341 337 328
Wind_Speed_850mb
17 20 18 16 13 8 10 13 20 15 8 17 22 43 43 43 46 36 41 40 40 39 31 30 31 30 33 33 32 33 34 35 36 38 41 45 44 51 43 49 49 59 65 69
12 15 11 8 9 9 10 15 14 17 2 19 28 51 37 7 22 33 38 38 37 36 36 32 31 35 35 33 35 35 34 35 37 42 46 49 50 54 56 54 55 65 68 74
15 5 7 5 10 15 3 6 12 15 26 6 27 19 9 7 6 10 21 29 34 39 37 36 33 31 30 33 33 34 36 38 40 43 47 47 51 47 43 45 65 70 79 81
13 2 4 6 6 12 8 7 14 19 15 8 10 10 16 5 6 10 20 27 30 32 31 31 31 33 33 35 37 36 38 38 37 41 44 46 46 44 46 52 61 65 66 64
4 8 10 6 4 3 7 13 13 10 7 12 3 6 11 3 5 6 8 18 25 26 28 31 33 31 31 31 31 36 37 35 37 42 47 47 44 47 51 56 59 61 61 54
6 1 4 7 9 7 18 10 8 5 4 6 6 9 17 5 2 1 2 4 9 13 23 28 27 27 28 28 36 32 35 37 35 40 48 47 49 53 57 59 60 65 60 63
2 3 3 5 9 7 12 7 7 5 4 7 4 11 23 15 8 6 9 8 7 8 19 22 22 26 26 23 25 26 30 38 41 45 47 51 55 55 57 58 60 61 65 63
7 5 2 7 6 6 8 3 4 10 10 17 7 13 8 4 2 6 10 8 9 11 9 17 20 19 20 21 24 26 32 39 42 47 52 53 54 57 58 58 58 62 63 64
8 6 6 6 5 4 5 3 6 5 4 4 7 12 23 8 6 4 1 5 6 10 15 17 17 15 16 19 23 32 35 40 45 50 52 52 53 54 55 57 58 63 63 67
9 12 6 4 3 7 3 6 2 2 12 15 8 9 16 4 6 5 6 4 3 17 22 22 11 13 18 19 25 30 34 42 49 50 50 50 53 53 56 59 61 63 67 68
4 4 4 2 8 7 5 4 2 4 4 7 13 10 8 9 5 5 6 5 15 29 31 23 14 15 17 21 26 34 42 48 49 50 54 53 54 56 58 61 63 65 69 69
4 3 10 12 5 2 3 6 7 6 5 8 7 20 5 5 8 3 11 14 28 35 20 11 10 13 19 25 37 42 48 50 53 54 58 58 57 58 59 62 63 66 70 73
4 3 10 7 3 5 8 10 7 1 4 17 10 16 2 7 4 9 15 25 24 14 12 13 14 21 27 39 46 48 51 53 56 62 63 65 63 62 62 62 66 68 72 79
1 6 10 15 15 3 16 12 16 12 8 13 30 51 43 29 8 27 21 13 13 14 13 15 20 29 36 43 48 51 53 58 66 69 74 74 71 68 66 66 67 74 69 71
3 9 8 26 30 22 37 34 21 28 36 19 49 32 54 39 33 25 12 18 12 10 13 21 27 33 41 46 48 51 56 65 70 73 74 73 74 73 75 76 75 68 64 62
5 5 6 16 18 17 23 31 25 34 41 40 55 64 45 34 3 12 12 11 7 8 16 23 30 38 43 45 48 54 62 67 69 73 73 74 77 81 81 77 73 67 61 58
4 4 2 10 7 22 19 20 22 13 15 14 18 22 4 4 7 9 6 8 6 12 20 29 35 39 41 45 50 59 65 68 71 71 71 73 77 79 75 72 69 69 66 60
11 6 3 11 10 7 11 3 7 19 25 29 33 32 18 11 21 16 13 8 9 15 23 31 37 39 42 47 55 62 66 69 71 71 73 74 75 73 70 68 68 69 68 65
9 4 5 7 7 25 21 8 3 4 15 26 28 20 12 10 10 12 11 8 9 16 24 29 31 36 39 44 54 62 65 67 68 70 73 74 71 69 67 67 68 69 67 63
6 3 5 3 9 14 12 11 11 9 13 7 2 5 7 4 21 9 11 5 8 16 23 24 29 35 41 50 57 60 61 64 65 68 72 72 67 63 62 63 67 65 63 59
9 6 12 15 14 21 23 22 10 2 9 10 7 14 17 14 16 6 7 6 12 17 19 25 32 39 47 52 58 60 58 58 63 65 70 69 62 58 56 59 62 64 64 64
17 17 12 8 11 21 26 20 12 4 7 32 28 27 33 24 14 11 9 9 12 14 19 26 36 45 50 54 59 59 59 63 66 69 69 65 57 54 55 57 56 59 60 63
8 15 11 24 18 6 30 48 47 41 44 42 35 24 26 22 19 14 12 9 10 13 20 30 41 48 50 54 57 61 63 67 69 71 68 64 56 54 56 56 56 58 61 61
11 20 9 3 30 54 66 72 67 59 55 45 30 23 27 23 20 18 11 8 8 15 25 34 42 47 50 53 55 58 63 67 69 70 67 62 59 59 57 56 54 60 63 61
13 28 13 24 58 71 74 50 47 47 44 37 29 24 26 23 21 14 9 6 8 16 27 36 43 47 49 51 54 58 62 65 67 68 66 62 59 59 60 59 60 62 58 52
31 24 16 28 73 21 35 23 28 29 29 32 31 32 30 24 17 12 11 5 8 19 28 34 40 45 49 51 53 56 58 61 66 68 66 61 61 59 61 66 74 64 56 53
Wind_Direction_850mb
31 66 52 24 20 350 336 326 315 303 37 322 283 289 288 280 261 243 250 243 238 241 242 239 250 263 271 278 283 284 286 293 302 308 314 315 316 319 317 317 316 316 317 317
70 58 18 339 347 344 332 311 326 296 142 329 307 295 291 320 270 252 244 245 242 241 235 237 245 256 266 270 278 278 284 292 301 306 312 315 317 318 315 315 310 314 315 317
70 50 327 321 17 352 0 328 340 305 319 261 301 280 197 180 253 263 244 241 239 238 237 239 242 250 263 269 272 276 283 291 299 304 314 317 316 315 313 309 312 315 317 318
68 25 314 329 66 351 308 29 325 303 326 300 2 289 294 159 280 222 237 237 243 243 242 243 244 249 254 262 265 277 284 296 306 310 315 316 316 312 309 311 308 309 310 308
39 3 3 13 322 317 322 331 309 314 270 315 150 280 287 191 174 196 226 240 245 245 244 244 246 252 256 258 273 281 293 302 306 311 314 316 312 310 309 310 308 306 308 301
93 206 345 325 296 251 313 304 270 258 243 273 73 359 284 252 75 147 168 311 309 265 251 249 249 251 258 268 277 285 293 300 310 311 314 315 314 314 313 313 309 308 304 304
248 171 91 353 298 198 304 312 331 327 291 279 126 275 258 292 296 290 326 344 339 306 251 253 258 258 272 274 282 295 303 308 312 317 317 317 316 315 312 312 310 309 307 304
358 295 40 357 20 327 342 334 352 309 307 310 155 234 258 80 350 279 267 289 327 319 282 268 272 277 281 285 294 299 304 312 318 319 318 318 316 314 311 311 310 306 307 304
335 259 121 40 354 343 6 348 12 288 88 282 243 267 268 47 315 280 302 332 345 355 338 321 313 302 297 306 311 311 318 321 321 322 321 319 318 317 315 312 310 307 306 306
25 300 55 51 328 59 310 9 309 118 318 307 237 268 257 289 263 18 22 333 308 333 337 339 321 299 309 319 322 325 328 323 324 322 322 321 321 318 316 314 311 309 308 308
122 136 313 185 196 172 169 206 190 290 251 272 304 274 179 203 153 142 279 241 318 328 327 324 321 325 337 337 329 328 326 327 327 325 325 325 323 321 317 315 313 311 311 311
75 316 269 245 130 343 260 255 221 245 202 251 294 273 41 130 131 127 311 294 319 317 322 335 344 344 340 329 327 331 330 331 330 331 329 328 324 322 319 317 315 315 311 308
138 248 303 269 198 168 222 200 194 126 259 231 261 262 246 107 148 300 309 323 326 351 349 356 348 339 332 329 332 333 337 335 335 333 331 329 327 326 324 321 319 317 309 308
298 273 232 256 273 27 263 205 207 207 256 269 236 273 278 289 357 341 338 350 349 350 359 346 341 334 334 333 337 342 342 339 337 335 333 333 331 329 326 324 320 318 319 315
213 261 285 264 273 278 268 266 222 212 235 248 275 279 282 300 317 326 335 326 332 344 343 334 335 336 335 338 342 342 341 337 336 334 335 336 335 332 332 328 328 325 323 322
165 269 343 296 308 293 280 275 244 237 256 258 264 276 279 290 256 305 313 319 316 314 319 329 337 338 339 340 342 340 337 335 334 337 337 339 337 337 336 336 336 333 331 327
192 241 281 265 337 326 282 250 198 204 210 205 234 261 119 269 321 326 308 277 259 303 330 337 338 336 337 338 338 335 335 336 337 337 338 340 340 338 339 340 341 343 340 333
155 174 206 282 305 264 235 229 222 223 259 222 263 274 313 313 297 295 289 254 291 328 335 337 334 335 335 334 333 335 338 337 336 338 339 340 340 339 341 341 343 343 340 338
221 189 232 276 264 282 277 139 136 268 273 267 242 264 278 301 311 247 254 256 327 337 337 336 333 332 332 331 331 334 336 334 336 336 338 339 340 339 341 342 344 342 338 340
136 339 246 162 260 285 352 151 136 148 278 89 113 345 307 304 303 335 196 255 312 324 327 333 330 331 332 332 333 335 335 334 335 335 337 338 339 336 338 341 340 339 341 338
158 174 220 219 254 275 277 154 129 200 315 144 309 295 271 267 272 204 225 264 301 321 334 332 336 336 335 333 334 336 334 333 333 334 337 339 337 335 338 339 338 341 339 337
178 166 202 186 230 276 154 129 213 301 295 303 310 285 269 247 234 230 232 268 314 331 332 335 338 338 338 335 336 337 336 335 336 338 339 338 337 338 336 335 339 340 339 336
263 200 195 188 221 231 209 254 269 276 285 290 293 277 266 220 216 218 242 287 311 324 336 336 338 339 341 339 339 338 339 338 339 339 340 340 340 338 336 333 335 338 340 335
239 205 241 25 238 257 274 283 274 277 276 278 273 261 234 209 205 214 235 271 307 336 336 339 340 341 342 342 342 339 340 339 339 341 341 341 338 337 336 336 335 331 335 333
189 155 208 255 278 275 275 282 269 269 263 254 236 237 207 201 197 211 227 243 314 336 342 342 341 342 344 345 343 342 342 339 341 342 342 339 336 336 336 335 335 333 334 329
195 213 219 250 269 264 276 283 279 251 242 230 224 198 192 189 192 201 209 236 335 344 343 345 344 345 347 346 345 344 343 343 343 342 340 338 338 337 336 335 337 341 337 328